Retour au catalogue

STARLINK-31219

ActifCommunicationsVLEO
NORAD 58866·PAYLOAD·🇺🇸 United States

Lancé Jan 29, 2024 depuis Cape Canaveral Space Force Station

Loading…

Prochains Passages (prochaines 24 heures)

TLE

FraisSource: CelesTrak SupGP

Époque: Sep 15, 2026, 02:47 UTC

1 58866C 24019P   26258.11645833 -.00018359  00000+0 -66528-3 0  2588
2 58866  42.9989 258.8409 0001454 265.3246 189.7025 15.27572450    15

Suivez STARLINK-31219 en temps réel avec AllMySat

Download on the App Store